Starlink 30468

operational
NORAD ID: 57926 Int'l Des: 2023-147 Owner: SPXS Country: US Constellation: starlink
LEOCIRCULAR

关于 Starlink 30468

正在加载描述...

实时位置

正在加载3D地球...

即将过境

高度历史

Altitude vs Time

uPlot chart will show altitude changes over time

两行轨道根数

1 57926U 23147P 25260.15165758 -.00001157 00000-0 -70593-4 0 9993
2 57926 43.0004 188.9922 0001028 269.3923 90.6802 15.02529619110485
Epoch: Sep 17, 2025 • Age: 41 hours

当前状态

高度 571.1 km
速度 7.58 km/s
星下点 -41.55°S, 158.92°E
发射日期 Sep 24, 2023
运行时间 1.9 years
类型 internet

技术详情

分类 Payload
质量 730.00 kg
干质量 700.00 kg
总质量 730.00 kg
长度 0.30 m
直径 4.10 m
跨度 29.00 m
形状 Box + pan
制造商 SPXS
平台类型 Starlink V2M
阶段状态 In Orbit
所有者/国家 SPXS/US

大型星座

Loading constellations...